Location: Unspecified
(50.0830°N, 0.0000°E)
Time: 13:44:57
(UTC+00:00)

N. Korean satellite - Pass Details

Date: 15 November 2019
Orbit: 456 x 506 km, 97.2° (Epoch: 06 December)

Event Time Altitude Azimuth Distance (km) Brightness Sun altitude
Rises 06:14:10 0° 10° (N) 2,625 10.2 -9.4°
Reaches altitude 10° 06:16:16 10° 8° (N) 1,734 9.3 -9.1°
Maximum altitude 06:19:59 68° 286° (WNW) 551 6.6 -8.5°
Drops below altitude 10° 06:23:39 10° 203° (SSW) 1,708 9.3 -8.0°
Sets 06:25:43 0° 201° (SSW) 2,581 10.2 -7.7°
